Location: Newark
(15.4608°S, 41.1635°W)
Time: 14:40:30
(UTC+00:00)

Envisat - Pass Details

Date: 19 June 2021
Orbit: 764 x 766 km, 98.1° (Epoch: 25 July)

Event Time Altitude Azimuth Distance (km) Brightness Sun altitude
Rises 08:19:22 0° 348° (NNW) 3,210 6.3 -12.1°
Reaches altitude 10° 08:21:59 10° 335° (NNW) 2,290 5.4 -11.5°
Maximum altitude 08:26:09 26° 279° (W) 1,470 4.0 -10.5°
Drops below altitude 10° 08:30:21 10° 223° (SW) 2,309 4.9 -9.6°
Enters shadow 08:30:49 - 220° (SW) 2,457 5.1 -9.5°
